Location: Bas-Clignon
(44.2000°N, 6.6333°E)
Time: 02:27:35
(UTC+00:00)

USA 215 - Pass Details

Date: 03 February 2023
Orbit: 1102 x 1106 km, 123.0° (Epoch: 26 March)

Event Time Altitude Azimuth Distance (km) Brightness Sun altitude
Rises 18:13:37 0° 148° (SSE) 3,906 5.9 -16.0°
Reaches altitude 10° 18:16:12 10° 154° (SSE) 2,951 5.3 -16.5°
Maximum altitude 18:22:27 48° 228° (SW) 1,402 4.2 -17.6°
Drops below altitude 10° 18:28:45 10° 302° (WNW) 2,964 6.3 -18.7°
Sets 18:31:21 0° 308° (NW) 3,925 6.9 -19.2°
